Oxford, NC

9:12 AM EST on December 11, 2017 (GMT -0500)
Henderson-Oxford

Weather History for KHNZ - October, 2012

Change the Weather History Date:

Wednesday, October 24, 2012

  Actual Average (KTDF) Record (KTDF)
Temperature  
Mean Temperature 64 °F -  
Max Temperature 78 °F 69 °F 89 °F (2001)
Min Temperature 50 °F 41 °F 27 °F (1964)
Degree Days  
Heating Degree Days 1    
Growing Degree Days 14 (Base 50)    
Moisture  
Dew Point 51 °F    
Average Humidity 67    
Maximum Humidity 94    
Minimum Humidity 34    
Precipitation  
Precipitation 0.00 in - - ()
Sea Level Pressure  
Sea Level Pressure 30.14 in    
Wind  
Wind Speed 5 mph (SW)    
Max Wind Speed 8 mph    
Max Gust Speed -    
Visibility 10 miles    
Events      
Averages and records for this station are not official NWS values.
T = Trace of Precipitation, MM = Missing Value Source: NWS Daily Summary

Daily Weather History Graph

Daily Weather History Graph

Search for Another Location

Airport or City:

Trip Planner

Search our weather history database for the weather conditions in past years. The results will help you decide how hot, cold, wet, or windy it might be!

Date:

Astronomy

Oct. 24, 2012 Rise Set
Actual Time 7:29 AM EDT 6:26 PM EDT
Civil Twilight 7:03 AM EDT 6:52 PM EDT
Nautical Twilight 6:33 AM EDT 7:22 PM EDT
Astronomical Twilight 6:03 AM EDT 7:52 PM EDT
Moon 3:33 PM EDT (10/24) 2:31 AM EDT (10/24)
Length of Visible Light 11h 48m
Length of Day
10h 56m
Waxing Gibbous, 76% of the Moon is Illuminated
Oct 24
Waxing Gibbous
Oct 29
Full
Nov 6
Last Quarter
Nov 13
New
Nov 20
First Quarter

Hourly Weather History & Observations

Time (EDT) Temp. Dew Point Humidity Pressure Visibility Wind Dir Wind Speed Gust Speed Precip Events Conditions
12:15 AM 57.2 °F 50.0 °F 77% 30.14 in 10.0 mi SW 5.8 mph - N/A   Clear
12:35 AM 57.2 °F 50.0 °F 77% 30.14 in 10.0 mi SSW 4.6 mph - N/A   Clear
12:55 AM 57.2 °F 50.0 °F 77% 30.15 in 10.0 mi SSW 3.5 mph - N/A   Clear
1:15 AM 55.4 °F 50.0 °F 82% 30.15 in 10.0 mi SSW 4.6 mph - N/A   Clear
1:35 AM 55.4 °F 50.0 °F 82% 30.15 in 10.0 mi SW 4.6 mph - N/A   Clear
1:55 AM 53.6 °F 50.0 °F 88% 30.15 in 10.0 mi SSW 4.6 mph - N/A   Clear
2:15 AM 53.6 °F 50.0 °F 88% 30.15 in 10.0 mi SW 6.9 mph - N/A   Clear
2:35 AM 53.6 °F 50.0 °F 88% 30.15 in 10.0 mi SW 6.9 mph - N/A   Clear
2:55 AM 53.6 °F 50.0 °F 88% 30.15 in 10.0 mi SSW 5.8 mph - N/A   Clear
3:15 AM 53.6 °F 50.0 °F 88% 30.14 in 10.0 mi SW 8.1 mph - N/A   Clear
3:35 AM 53.6 °F 50.0 °F 88% 30.15 in 10.0 mi SW 6.9 mph - N/A   Clear
3:55 AM 53.6 °F 50.0 °F 88% 30.14 in 10.0 mi SW 6.9 mph - N/A   Clear
4:15 AM 53.6 °F 48.2 °F 82% 30.14 in 10.0 mi SW 6.9 mph - N/A   Clear
4:35 AM 53.6 °F 50.0 °F 88% 30.14 in 10.0 mi SW 6.9 mph - N/A   Clear
4:55 AM 51.8 °F 48.2 °F 88% 30.14 in 10.0 mi SSW 6.9 mph - N/A   Clear
5:15 AM 51.8 °F 48.2 °F 88% 30.15 in 10.0 mi South 5.8 mph - N/A   Clear
5:35 AM 51.8 °F 48.2 °F 88% 30.15 in 10.0 mi SSW 5.8 mph - N/A   Clear
5:55 AM 51.8 °F 48.2 °F 88% 30.15 in 10.0 mi SSW 5.8 mph - N/A   Clear
6:15 AM 51.8 °F 48.2 °F 88% 30.16 in 10.0 mi SW 6.9 mph - N/A   Clear
6:35 AM 51.8 °F 50.0 °F 94% 30.17 in 10.0 mi SW 6.9 mph - N/A   Clear
6:55 AM 50.0 °F 48.2 °F 94% 30.17 in 10.0 mi SSW 5.8 mph - N/A   Clear
7:15 AM 51.8 °F 50.0 °F 94% 30.17 in 10.0 mi SW 4.6 mph - N/A   Clear
7:35 AM 50.0 °F 48.2 °F 94% 30.18 in 10.0 mi SSW 4.6 mph - N/A   Clear
7:55 AM 51.8 °F 50.0 °F 94% 30.19 in 7.0 mi SW 4.6 mph - N/A   Clear
8:15 AM 53.6 °F 50.0 °F 88% 30.19 in 10.0 mi SSW 5.8 mph - N/A   Clear
8:35 AM 53.6 °F 50.0 °F 88% 30.19 in 10.0 mi SSW 6.9 mph - N/A   Clear
8:55 AM 57.2 °F 51.8 °F 82% 30.19 in 10.0 mi SSW 6.9 mph - N/A   Clear
9:15 AM 59.0 °F 50.0 °F 72% 30.19 in 10.0 mi SW 6.9 mph - N/A   Clear
9:55 AM 64.4 °F 50.0 °F 59% 30.19 in 10.0 mi SW 4.6 mph - N/A   Clear
10:15 AM 64.4 °F 51.8 °F 64% 30.19 in 10.0 mi SW 6.9 mph - N/A   Clear
10:35 AM 68.0 °F 50.0 °F 52% 30.18 in 10.0 mi SW 6.9 mph - N/A   Clear
10:55 AM 69.8 °F 50.0 °F 49% 30.18 in 10.0 mi SW 5.8 mph - N/A   Clear
11:15 AM 71.6 °F 51.8 °F 50% 30.17 in 10.0 mi SW 6.9 mph - N/A   Clear
11:35 AM 71.6 °F 50.0 °F 46% 30.17 in 10.0 mi SW 8.1 mph - N/A   Clear
12:15 PM 73.4 °F 51.8 °F 47% 30.16 in 10.0 mi West 4.6 mph - N/A   Clear
12:35 PM 77.0 °F 51.8 °F 41% 30.15 in 10.0 mi West 5.8 mph - N/A   Clear
12:55 PM 77.0 °F 51.8 °F 41% 30.14 in 10.0 mi SW 5.8 mph - N/A   Clear
1:15 PM 77.0 °F 51.8 °F 41% 30.13 in 10.0 mi SW 5.8 mph - N/A   Clear
1:35 PM 78.8 °F 50.0 °F 36% 30.12 in 10.0 mi West 3.5 mph - N/A   Clear
1:55 PM 78.8 °F 50.0 °F 36% 30.11 in 10.0 mi WSW 5.8 mph - N/A   Clear
2:35 PM 78.8 °F 50.0 °F 36% 30.10 in 10.0 mi Calm Calm - N/A   Clear
2:55 PM 78.8 °F 50.0 °F 36% 30.09 in 10.0 mi WSW 4.6 mph - N/A   Clear
3:15 PM 78.8 °F 50.0 °F 36% 30.09 in 10.0 mi WSW 3.5 mph - N/A   Clear
3:35 PM 78.8 °F 50.0 °F 36% 30.09 in 10.0 mi Calm Calm - N/A   Clear
3:55 PM 78.8 °F 48.2 °F 34% 30.09 in 10.0 mi Calm Calm - N/A   Clear
4:15 PM 78.8 °F 48.2 °F 34% 30.09 in 10.0 mi Calm Calm - N/A   Clear
4:35 PM 78.8 °F 48.2 °F 34% 30.09 in 10.0 mi Calm Calm - N/A   Clear
4:55 PM 78.8 °F 50.0 °F 36% 30.09 in 10.0 mi Calm Calm - N/A   Clear
5:15 PM 78.8 °F 51.8 °F 39% 30.09 in 10.0 mi SW 3.5 mph - N/A   Clear
5:35 PM 77.0 °F 51.8 °F 41% 30.09 in 10.0 mi South 5.8 mph - N/A   Clear
5:55 PM 77.0 °F 51.8 °F 41% 30.10 in 10.0 mi South 4.6 mph - N/A   Clear
6:35 PM 71.6 °F 53.6 °F 53% 30.11 in 10.0 mi South 4.6 mph - N/A   Clear
6:55 PM 69.8 °F 53.6 °F 56% 30.11 in 10.0 mi Calm Calm - N/A   Clear
7:15 PM 68.0 °F 53.6 °F 60% 30.11 in 10.0 mi South 3.5 mph - N/A   Clear
7:35 PM 64.4 °F 55.4 °F 73% 30.12 in 10.0 mi South 3.5 mph - N/A   Clear
7:55 PM 64.4 °F 53.6 °F 68% 30.12 in 10.0 mi South 3.5 mph - N/A   Clear
8:35 PM 66.2 °F 53.6 °F 64% 30.12 in 10.0 mi Calm Calm - N/A   Clear
9:15 PM 64.4 °F 51.8 °F 64% 30.12 in 10.0 mi Calm Calm - N/A   Clear
9:35 PM 59.0 °F 53.6 °F 82% 30.12 in 10.0 mi SSW 3.5 mph - N/A   Clear
9:55 PM 64.4 °F 53.6 °F 68% 30.13 in 10.0 mi Calm Calm - N/A   Clear
10:15 PM 60.8 °F 53.6 °F 77% 30.13 in 10.0 mi SSW 3.5 mph - N/A   Clear
10:55 PM 60.8 °F 51.8 °F 72% 30.13 in 10.0 mi Calm Calm - N/A   Clear
11:15 PM 59.0 °F 51.8 °F 77% 30.14 in 10.0 mi South 3.5 mph - N/A   Clear
11:35 PM 59.0 °F 51.8 °F 77% 30.14 in 10.0 mi SSW 3.5 mph - N/A   Clear
11:55 PM 60.8 °F 51.8 °F 72% 30.14 in 10.0 mi SSW 4.6 mph - N/A   Clear